Regional Weather Roundup
Issued by NWS Kansas City/Pleasant Hill, MO

Home | Current Version | Previous Version | Graphics & Text | Print | Product List | Glossary Off
Versions: 1 2 3 4 5 6 7 8 9 10 11 12 13 14 15 16 17 18 19 20 21 22 23 24 25 26 27 28

000
ASUS43 KEAX 041310
RWREAX

WEATHER ROUNDUP FOR EASTERN KANSAS AND NORTHWEST MISSOURI
NATIONAL WEATHER SERVICE KANSAS CITY/PLEASANT HILL MO
800 AM CDT WED MAY 04 2016

KSZ040-057-103>105-MOZ028-029-037-043-041400-
...KANSAS CITY METROPOLITAN AREA...

CITY           SKY/WX    TMP DP  RH WIND       PRES   REMARKS
K.C. INTL      SUNNY     56  40  55 N12       29.91R
K.C. DOWNTOWN  MOSUNNY   58  41  53 NW9       29.90R
LEES SUMMIT    SUNNY     57  41  55 N14       29.90R
OLATHE - IXD   SUNNY     56  43  61 NW12      29.93R
OLATHE - OJC   SUNNY     56  41  57 N10       29.91R
LAWRENCE       SUNNY     55  44  66 N13       29.94R

$$

MOZ001>008-011>017-020>025-030>033-038>040-044>046-053-054-041400-
...NORTHERN AND CENTRAL MISSOURI...

CITY           SKY/WX    TMP DP  RH WIND       PRES   REMARKS
ST. JOSEPH     SUNNY     55  38  52 N13       29.93R
MOSBY          MOSUNNY   55  39  54 NW10      29.90R
WARRENSBURG    SUNNY     57  43  58 NW9       29.87R
WHITEMAN AFB   SUNNY     58  44  61 NW14      29.85R
CLINTON        SUNNY     57  46  67 NW9       29.87R
SEDALIA        SUNNY     58  45  62 NW14      29.85R
WARSAW         NOT AVBL
CHILLICOTHE      N/A     56  41  57 N9        29.89R
KIRKSVILLE     SUNNY     55  43  63 N15G22    29.85R

$$

MOZ041-047>049-056>058-063>065-088>090-097-041400-
...EASTERN AND SOUTHERN MISSOURI...

CITY           SKY/WX    TMP DP  RH WIND       PRES   REMARKS
ST. LOUIS INTL MOSUNNY   61  47  59 W9        29.73R
SPIRIT OF STL  MOSUNNY   59  48  67 W9        29.73R
COLUMBIA       SUNNY     58  45  62 NW17      29.80R
JEFFERSON CITY SUNNY     59  46  62 NW13      29.80R
ROLLA          PTSUNNY   56  46  69 W14       29.78S
OSAGE BEACH    SUNNY     57  41  54 W9G18     29.82S
SPRINGFIELD    SUNNY     57  44  62 W13       29.87S
BRANSON        SUNNY     55  46  71 W7        29.91S
JOPLIN         SUNNY     57  46  66 W12       29.93R
WEST PLAINS    MOSUNNY   51  43  74 W12       29.85F

$$

IAZ060-094-KSZ022-034>040-054-083-096-NEZ052-066-093-041400-
...KANSAS...SOUTHEAST NEBRASKA AND IOWA...

CITY           SKY/WX    TMP DP  RH WIND       PRES   REMARKS
TOPEKA         SUNNY     55  44  66 NW10      29.96R
MANHATTAN      SUNNY     56  43  61 N5        30.00R
EMPORIA        SUNNY     56  45  66 NW9       29.97R
CHANUTE        SUNNY     58  46  64 NW12      29.95R
WICHITA        SUNNY     58  45  62 NW17G26   30.02R
OMAHA          SUNNY     51  38  60 N12       30.00R
LINCOLN        SUNNY     53  36  52 NW13      30.04R
FALLS CITY     SUNNY     54  39  57 NW12      29.97R
LAMONI         SUNNY     51  38  60 N12       29.91R
DES MOINES     SUNNY     53  37  54 N12       29.92R

$$





USA.gov is the U.S. government's official web portal to all federal, state and local government web resources and services.